Wind_Speed
38 38 37 37 37 37 37 38 38 37 36 36 36 38 39 38 38 39 39 38 37 38 38 37 39 42 43 44 47 45 44 46 45 43 44 47 46 47 47 46 47 47 47 47 47 48 49 49 51 52 53 54
40 40 38 38 37 37 37 37 38 38 37 37 37 37 39 39 38 40 41 40 38 37 38 40 42 45 46 45 50 50 45 47 51 49 49 49 47 49 51 47 47 48 48 50 50 50 51 51 51 52 54 55
42 41 40 39 38 38 37 37 38 38 38 37 37 37 38 38 39 41 41 41 41 38 38 41 42 44 46 46 49 51 47 48 53 50 47 45 44 47 49 48 47 47 46 48 51 51 51 52 51 51 54 54
43 42 42 41 39 39 39 38 37 38 38 38 38 37 37 36 36 40 40 39 42 40 41 42 41 43 47 49 50 51 47 45 47 45 42 41 43 45 46 46 46 45 45 47 49 51 53 52 51 51 52 54
44 43 42 42 41 41 40 40 38 38 38 39 39 38 38 35 33 38 40 39 40 41 43 44 42 43 46 48 51 52 50 48 47 48 48 47 48 47 46 45 45 45 45 45 45 47 50 51 50 50 50 52
45 44 43 43 42 42 42 42 40 38 38 39 40 40 38 37 35 37 40 40 40 39 41 43 43 44 47 50 51 52 52 53 54 56 55 55 54 51 48 47 45 43 43 43 42 43 46 47 47 48 50 51
47 46 45 45 44 43 43 44 44 42 40 39 40 41 40 38 37 37 39 40 39 40 41 42 43 45 47 50 51 53 53 54 56 57 57 58 57 53 53 52 48 44 42 41 40 42 46 48 48 48 49 51
48 48 47 47 46 45 44 44 45 45 44 41 41 42 42 40 39 39 40 40 39 39 39 39 42 45 48 50 53 54 55 55 55 53 54 56 54 53 54 56 54 50 46 44 43 43 44 46 49 50 50 51
48 49 49 49 49 48 47 45 45 47 47 45 43 43 43 43 42 42 43 44 45 44 42 41 40 41 45 49 52 52 50 50 50 46 47 49 49 48 51 54 56 56 54 52 50 47 45 43 44 47 47 48
49 50 50 50 50 50 50 49 47 47 48 49 47 45 45 45 44 44 45 46 49 52 52 50 48 46 45 45 46 47 44 43 42 40 41 44 45 43 44 48 52 54 56 57 55 52 50 47 44 43 43 43
50 51 51 51 51 52 52 52 51 49 49 50 50 49 48 48 46 46 47 48 49 52 54 56 57 57 54 50 48 47 46 42 39 37 37 40 44 43 42 44 46 49 53 55 54 52 51 50 47 44 44 42
52 52 52 52 52 53 53 54 54 53 52 51 52 52 51 51 49 49 49 49 49 50 53 56 58 60 60 58 55 54 52 49 45 41 38 38 39 41 42 43 44 46 48 51 52 50 49 49 47 45 45 44
53 53 54 54 54 54 54 55 55 56 56 54 54 54 54 54 53 52 52 51 50 50 53 55 57 59 61 60 58 59 58 56 53 50 47 44 40 39 40 42 44 45 45 47 48 49 49 48 47 46 45 45
54 54 54 55 56 56 56 56 57 57 58 58 57 56 56 56 56 56 55 54 53 51 52 55 57 58 59 59 58 58 60 60 59 57 55 54 50 46 43 41 42 44 45 46 47 48 49 49 49 48 46 45
56 56 55 55 56 57 57 57 58 59 59 59 59 59 59 58 58 58 58 57 56 54 53 55 57 58 59 59 58 58 59 60 60 59 57 57 56 54 52 49 45 44 45 46 47 47 49 50 50 50 49 48
60 59 58 58 57 58 58 59 59 59 61 61 61 61 61 61 61 60 60 60 59 58 56 56 57 59 59 59 58 59 58 58 60 59 57 56 55 55 55 54 52 49 47 46 46 46 47 48 49 50 50 49
63 62 62 61 61 60 60 60 61 61 61 63 63 64 64 64 64 63 63 62 60 60 60 58 58 58 59 59 59 60 59 57 58 59 57 55 55 54 54 54 54 54 53 51 48 47 46 47 48 49 50 49
65 65 65 65 64 64 63 63 63 63 63 64 65 66 66 66 66 66 66 66 64 64 62 61 60 60 60 59 60 61 60 56 57 59 58 56 55 55 55 54 53 55 56 56 55 51 49 47 47 49 50 49
67 67 67 67 67 66 66 66 66 66 66 66 66 67 68 68 68 69 69 69 68 68 66 64 63 62 62 61 61 61 60 59 59 59 59 58 57 56 56 55 53 54 55 57 57 57 54 51 49 49 49 50
68 69 69 68 68 68 68 68 68 68 68 68 69 69 70 70 70 70 70 71 71 71 70 69 67 65 63 63 62 61 60 60 60 60 60 61 60 59 59 59 57 56 56 57 58 58 58 55 53 51 50 50
70 71 71 71 70 70 69 68 68 69 69 70 70 71 72 73 73 73 72 72 73 73 73 72 72 70 67 66 65 63 62 61 61 60 60 61 61 60 60 61 61 60 59 59 59 59 59 59 57 55 53 52
72 73 73 73 73 73 73 72 71 70 69 70 70 71 73 74 75 76 76 75 75 75 75 74 74 73 71 70 68 65 64 62 62 62 60 60 59 57 57 58 57 59 60 59 59 60 60 59 58 57 56 55
73 73 74 75 75 76 76 76 75 74 72 71 71 71 72 74 75 77 78 78 78 77 76 76 76 75 74 74 72 70 67 62 61 63 61 61 58 55 56 55 52 54 57 57 58 59 59 58 57 57 57 57
74 74 75 76 76 77 77 78 78 78 77 76 74 73 73 73 74 76 78 79 80 79 78 77 77 76 76 76 74 72 72 68 66 66 64 63 61 59 60 59 55 54 55 57 57 56 57 57 56 55 56 57
73 74 75 76 77 78 78 79 80 80 81 80 79 78 76 75 74 75 76 78 80 81 81 79 78 78 77 77 74 72 73 73 70 68 66 64 63 62 62 62 59 56 57 58 57 56 55 55 56 56 58 58
70 72 74 75 77 78 79 80 80 81 82 82 82 82 81 80 78 77 77 77 79 80 81 81 80 79 78 78 76 73 71 72 71 70 69 67 66 65 63 63 60 57 58 60 58 58 58 57 57 58 60 59
69 70 71 73 75 77 79 80 81 82 82 83 83 84 84 83 82 81 80 79 79 80 81 82 81 80 79 78 78 75 72 71 71 74 74 71 69 68 66 65 64 61 61 61 60 62 63 63 61 61 62 60
69 69 70 71 73 75 77 79 80 82 83 84 84 85 85 85 85 84 83 82 81 81 81 82 83 82 81 79 78 78 75 73 72 74 76 75 73 71 69 68 67 67 66 64 64 65 67 67 66 66 65 64
69 70 71 72 73 74 76 77 79 80 82 84 85 86 86 87 87 87 86 85 84 84 83 83 84 84 83 81 80 79 78 77 74 71 72 74 76 75 73 72 70 71 72 70 68 68 69 68 69 70 68 68
69 70 71 72 73 74 75 76 77 78 80 82 84 86 87 88 88 89 89 88 87 86 86 86 85 85 85 84 83 81 80 79 77 74 72 70 72 72 72 74 74 74 75 75 73 71 71 71 70 68 68 70
69 70 70 71 72 73 75 76 77 78 78 80 82 84 86 88 89 89 90 90 90 89 88 88 87 87 87 86 86 84 82 80 79 81 81 75 71 70 71 75 76 76 77 78 78 76 74 74 73 70 66 66
Wind_Direction
272 271 271 271 270 270 270 270 270 270 270 270 271 272 272 271 271 270 268 265 262 260 256 249 241 244 249 243 239 240 238 237 230 226 233 240 245 247 247 245 246 247 243 241 239 239 238 238 240 238 238 238
273 272 271 271 270 270 270 271 271 271 270 270 271 272 273 272 270 268 266 264 260 257 252 246 239 241 248 241 233 236 237 237 234 228 230 237 241 245 249 250 250 249 247 246 242 240 240 240 240 239 238 238
273 273 272 271 269 268 268 269 270 271 270 270 270 271 272 273 272 271 269 265 259 254 247 244 241 238 243 242 236 237 234 232 232 228 229 238 244 246 250 253 252 252 251 250 246 242 242 243 242 240 240 239
273 273 273 272 270 268 266 266 267 269 270 269 270 270 270 271 271 273 272 266 260 253 246 243 242 240 241 242 242 243 239 234 231 228 232 242 249 252 253 253 251 251 251 250 248 244 242 241 241 240 240 240
274 273 273 272 271 269 267 266 265 266 268 268 269 269 270 268 263 265 267 264 259 252 246 243 242 243 243 242 244 246 246 246 245 244 247 250 251 254 255 252 249 250 251 249 248 247 244 240 239 239 240 240
274 273 272 271 270 269 268 267 265 264 266 267 267 268 268 267 262 259 262 262 258 251 245 241 239 241 244 244 245 247 249 251 254 254 254 253 252 252 251 250 249 249 250 249 246 245 244 240 239 240 241 241
273 272 271 270 269 268 267 267 267 265 264 264 265 267 266 265 262 256 256 258 253 248 244 240 238 239 242 244 246 248 249 251 253 254 253 253 253 251 250 249 250 249 247 245 243 242 243 243 243 242 242 242
272 271 271 269 268 266 266 266 267 267 265 264 263 265 265 263 261 255 251 251 247 241 240 239 239 240 241 244 246 246 247 248 249 249 249 249 250 249 248 248 249 249 246 244 243 240 240 241 242 242 243 242
271 271 270 269 268 266 265 263 264 266 266 265 262 261 263 262 261 257 252 249 247 244 242 240 240 240 240 242 243 242 241 242 242 244 245 246 247 245 244 246 247 248 247 247 248 246 242 240 239 240 241 240
271 271 270 270 269 267 266 263 261 262 265 266 264 261 260 261 260 259 256 252 250 249 249 249 249 249 246 244 242 241 241 241 240 241 242 244 245 244 241 242 243 245 246 248 250 249 247 246 243 241 239 238
271 271 271 270 269 268 267 265 262 260 261 264 265 263 261 260 260 259 258 256 254 253 252 252 253 253 253 251 249 248 246 245 245 242 240 241 243 244 242 240 240 240 243 245 248 248 247 247 246 245 244 241
271 271 270 270 269 269 268 266 264 262 261 261 263 264 263 261 260 259 258 257 256 255 254 253 252 253 253 253 253 253 252 252 251 248 244 243 243 245 244 243 241 240 241 243 246 247 246 246 246 245 245 244
270 270 270 269 269 269 268 267 265 264 262 261 261 262 263 263 261 259 258 258 257 256 255 255 254 254 254 255 254 254 256 257 256 254 251 250 249 249 248 246 243 242 242 242 244 245 246 245 245 244 242 242
269 268 268 268 268 267 267 267 266 265 263 262 261 261 261 262 262 261 259 258 257 256 256 256 256 256 255 256 256 256 256 257 258 256 255 254 254 252 252 251 247 245 244 243 243 244 245 245 244 243 242 240
270 268 267 266 266 266 266 266 266 266 265 263 261 261 261 260 261 261 261 260 259 257 256 256 257 257 257 257 257 256 255 256 257 257 256 255 255 254 253 253 251 249 248 246 245 244 245 246 245 244 243 241
272 271 269 267 266 265 265 265 264 265 265 264 263 261 261 260 260 260 260 260 260 259 257 256 257 257 258 258 258 258 256 255 257 257 257 255 254 253 252 251 250 250 250 250 248 247 246 246 246 245 243 242
273 272 271 270 268 266 265 264 264 263 263 264 264 263 261 261 260 259 259 259 259 259 259 257 257 257 257 258 258 258 258 256 256 257 257 255 253 252 251 250 249 248 249 249 249 248 247 247 247 247 246 243
273 272 271 271 270 268 267 265 264 263 263 262 263 263 262 261 261 260 259 259 258 258 258 258 258 257 257 257 257 258 258 257 255 256 256 254 252 251 251 249 247 248 249 249 249 248 247 246 246 246 247 246
273 272 271 270 269 268 267 266 264 263 262 262 261 261 262 261 261 260 260 260 259 258 258 258 257 257 257 256 256 257 257 257 255 254 255 254 251 250 250 248 246 246 248 249 249 248 247 245 244 244 244 244
273 272 271 270 268 267 266 265 264 263 262 261 260 260 260 260 260 260 260 260 260 260 259 258 257 256 256 256 256 255 256 256 256 255 254 254 252 250 249 249 247 246 246 248 249 249 248 246 245 243 242 242
274 273 272 271 269 268 266 265 263 262 261 260 259 258 259 259 259 259 259 259 259 260 260 260 259 257 256 255 255 255 254 254 255 254 254 254 254 253 251 250 249 247 246 246 247 248 249 248 246 244 242 241
275 274 273 272 271 269 268 266 264 263 261 260 259 258 257 257 258 259 259 258 258 258 259 259 260 259 258 256 255 254 253 253 252 252 253 253 253 254 253 252 251 250 248 245 245 246 247 247 246 244 243 241
276 274 273 272 271 270 269 268 266 265 263 261 260 258 257 256 256 256 258 258 257 257 257 257 258 259 259 258 257 255 253 250 249 250 251 250 249 248 248 249 249 250 251 249 247 246 245 245 245 243 242 242
276 275 274 273 272 271 269 268 267 266 264 263 261 259 258 256 255 254 255 257 258 257 256 255 256 257 257 257 257 256 254 251 248 249 249 248 247 245 244 245 245 247 251 252 251 248 246 245 243 242 242 241
276 275 275 274 273 272 270 269 268 267 265 264 262 261 259 257 256 255 254 254 255 257 257 255 254 254 255 256 256 254 254 253 250 248 246 245 245 245 244 245 244 244 247 249 249 246 244 242 239 239 241 240
277 276 275 273 272 271 270 270 269 268 266 265 264 262 260 258 257 255 254 253 253 254 256 256 255 254 253 253 254 252 251 251 250 248 247 245 244 243 243 243 241 240 244 247 247 244 242 239 236 236 238 238
279 277 276 274 273 271 270 268 268 267 266 265 264 263 262 260 258 256 254 253 252 252 253 255 255 254 253 252 252 251 249 247 247 248 248 246 244 242 241 241 239 236 239 244 246 245 243 241 238 237 238 238
284 281 279 277 275 273 271 269 267 266 265 265 264 263 262 261 260 258 256 254 252 251 251 252 253 254 253 252 250 249 248 246 246 247 247 246 244 243 241 239 238 235 234 238 243 246 245 244 243 241 239 239
289 286 283 281 278 276 273 270 268 267 265 264 263 263 262 261 260 259 258 256 254 252 250 250 250 251 252 252 250 248 247 245 245 245 246 246 245 244 242 239 236 235 234 234 237 243 245 245 246 245 243 240
294 291 288 285 282 279 277 274 271 268 266 264 263 262 261 260 260 259 258 257 255 253 251 250 249 249 250 250 250 249 247 245 242 239 241 245 245 244 242 240 238 235 234 233 234 238 242 243 243 244 245 244
299 296 293 290 286 283 281 278 275 271 268 266 263 262 261 260 259 259 258 256 255 254 252 250 249 248 248 248 249 249 247 245 241 238 240 241 241 240 238 238 238 235 233 233 233 235 238 241 241 240 241 243
Height
5755 5755 5755 5754 5754 5753 5752 5750 5748 5748 5748 5747 5747 5746 5745 5745 5745 5744 5743 5744 5744 5745 5746 5748 5750 5748 5746 5746 5747 5747 5749 5748 5748 5747 5747 5747 5749 5751 5752 5754 5755 5756 5758 5759 5759 5759 5760 5761 5762 5765 5767 5769
5751 5751 5750 5750 5749 5749 5748 5746 5744 5744 5743 5743 5743 5742 5741 5741 5740 5738 5738 5738 5739 5740 5740 5741 5744 5744 5742 5743 5742 5741 5743 5744 5744 5743 5742 5743 5744 5745 5746 5749 5751 5751 5753 5754 5756 5756 5755 5757 5757 5759 5761 5763
5746 5746 5746 5745 5745 5744 5744 5742 5741 5740 5739 5739 5738 5738 5737 5737 5735 5733 5733 5733 5733 5734 5734 5735 5738 5740 5740 5740 5739 5737 5738 5739 5739 5739 5739 5741 5741 5741 5742 5744 5745 5746 5748 5749 5751 5752 5752 5752 5753 5755 5756 5758
5742 5741 5741 5740 5740 5740 5739 5739 5737 5736 5735 5734 5734 5735 5734 5734 5732 5729 5729 5729 5728 5730 5730 5730 5733 5735 5735 5736 5736 5736 5735 5735 5734 5735 5737 5738 5737 5737 5738 5739 5740 5740 5742 5743 5744 5746 5747 5747 5748 5750 5751 5753
5737 5737 5736 5735 5735 5735 5735 5734 5734 5732 5731 5730 5730 5731 5730 5730 5730 5727 5725 5724 5724 5725 5725 5726 5728 5730 5730 5731 5731 5731 5731 5730 5729 5730 5731 5732 5732 5732 5734 5734 5734 5735 5737 5738 5739 5740 5741 5742 5743 5745 5747 5748
5732 5731 5731 5731 5730 5730 5730 5729 5729 5728 5727 5726 5726 5726 5726 5726 5726 5725 5722 5721 5720 5720 5721 5722 5723 5724 5725 5725 5725 5726 5726 5725 5723 5724 5725 5726 5726 5729 5729 5729 5730 5730 5731 5733 5734 5735 5736 5737 5738 5740 5741 5743
5727 5726 5726 5725 5725 5725 5725 5724 5723 5723 5723 5723 5722 5722 5722 5722 5722 5722 5721 5719 5717 5716 5716 5717 5717 5718 5718 5719 5719 5720 5721 5720 5718 5718 5720 5720 5721 5724 5724 5724 5725 5725 5727 5728 5729 5730 5731 5732 5734 5735 5736 5738
5722 5721 5721 5720 5719 5719 5719 5719 5718 5718 5718 5719 5719 5717 5717 5717 5717 5717 5717 5717 5715 5713 5713 5713 5713 5713 5713 5713 5714 5714 5715 5715 5714 5714 5715 5714 5715 5717 5717 5718 5719 5720 5721 5723 5724 5725 5726 5727 5728 5730 5731 5732
5717 5716 5715 5714 5714 5713 5714 5714 5713 5712 5712 5713 5714 5713 5712 5712 5712 5712 5712 5712 5711 5710 5710 5710 5709 5709 5708 5708 5709 5709 5709 5710 5709 5709 5709 5709 5709 5710 5711 5712 5713 5714 5716 5717 5719 5720 5721 5722 5723 5724 5726 5727
5711 5710 5709 5709 5708 5708 5707 5708 5708 5707 5706 5706 5707 5708 5707 5707 5707 5707 5706 5706 5706 5706 5706 5706 5705 5704 5704 5704 5704 5704 5704 5704 5704 5704 5704 5704 5704 5704 5705 5706 5707 5708 5710 5711 5712 5714 5716 5717 5718 5719 5721 5722
5705 5705 5704 5703 5702 5702 5701 5701 5701 5702 5701 5700 5700 5701 5702 5702 5702 5701 5700 5700 5700 5700 5700 5700 5699 5699 5699 5698 5698 5698 5698 5699 5699 5698 5698 5699 5699 5700 5701 5701 5701 5702 5703 5705 5706 5708 5710 5711 5712 5714 5716 5717
5700 5699 5698 5697 5696 5695 5695 5695 5695 5695 5695 5695 5694 5694 5695 5695 5696 5695 5694 5694 5694 5694 5694 5693 5693 5692 5692 5692 5692 5692 5692 5693 5693 5694 5694 5694 5694 5695 5696 5696 5697 5697 5698 5699 5700 5702 5704 5705 5706 5708 5710 5712
5694 5693 5692 5691 5690 5689 5689 5688 5688 5688 5688 5688 5688 5687 5687 5688 5688 5689 5688 5688 5688 5688 5687 5687 5687 5686 5686 5686 5686 5686 5686 5686 5687 5688 5689 5690 5690 5690 5691 5691 5692 5692 5693 5694 5695 5697 5698 5700 5701 5703 5705 5706
5688 5687 5686 5685 5684 5683 5682 5681 5681 5681 5681 5681 5681 5681 5681 5680 5680 5681 5681 5681 5682 5682 5681 5680 5680 5679 5679 5680 5680 5680 5679 5679 5680 5681 5683 5684 5685 5686 5686 5686 5687 5687 5688 5689 5690 5691 5693 5694 5696 5697 5699 5700
5680 5680 5679 5679 5678 5676 5676 5675 5674 5673 5673 5673 5674 5673 5673 5673 5673 5673 5674 5674 5675 5675 5675 5674 5673 5672 5673 5674 5674 5673 5673 5673 5673 5674 5676 5678 5679 5680 5681 5682 5682 5682 5683 5683 5685 5686 5687 5688 5690 5692 5693 5695
5672 5672 5671 5671 5670 5670 5669 5668 5667 5666 5666 5665 5666 5666 5666 5666 5666 5665 5665 5666 5667 5667 5668 5667 5666 5666 5666 5667 5667 5667 5667 5667 5667 5668 5669 5671 5672 5674 5675 5676 5676 5677 5677 5678 5679 5680 5681 5682 5684 5685 5687 5689
5664 5663 5663 5662 5662 5662 5661 5661 5660 5659 5659 5658 5657 5657 5658 5658 5658 5657 5657 5658 5659 5659 5659 5660 5660 5659 5659 5660 5660 5659 5660 5662 5661 5662 5663 5664 5665 5666 5668 5669 5670 5671 5672 5673 5673 5675 5676 5677 5678 5679 5680 5682
5655 5654 5654 5653 5653 5653 5652 5652 5652 5652 5651 5651 5650 5649 5649 5649 5649 5649 5649 5650 5650 5650 5651 5652 5652 5652 5652 5652 5652 5652 5653 5655 5655 5655 5656 5657 5658 5659 5661 5662 5663 5664 5665 5666 5667 5668 5670 5671 5672 5673 5674 5676
5646 5645 5644 5644 5644 5643 5643 5643 5643 5643 5643 5643 5642 5641 5641 5640 5641 5641 5641 5641 5641 5642 5643 5644 5644 5644 5645 5645 5645 5645 5646 5647 5647 5648 5649 5650 5651 5652 5653 5655 5657 5658 5659 5659 5660 5662 5663 5665 5666 5667 5668 5670
5636 5635 5635 5634 5634 5634 5633 5633 5633 5633 5634 5634 5634 5634 5633 5632 5632 5632 5632 5632 5632 5632 5633 5634 5635 5636 5637 5637 5637 5637 5638 5639 5639 5641 5642 5642 5644 5645 5646 5647 5649 5651 5652 5653 5653 5654 5656 5658 5660 5661 5662 5663
5627 5625 5625 5624 5624 5623 5623 5623 5623 5623 5623 5624 5625 5625 5625 5624 5623 5623 5623 5624 5624 5624 5624 5624 5625 5627 5628 5629 5629 5629 5630 5631 5632 5633 5634 5635 5636 5637 5638 5639 5641 5643 5645 5646 5646 5647 5649 5650 5653 5654 5656 5657
5617 5616 5614 5614 5613 5613 5612 5613 5613 5613 5613 5613 5614 5615 5615 5615 5614 5613 5613 5614 5615 5615 5615 5615 5615 5616 5618 5619 5621 5622 5622 5623 5624 5625 5627 5628 5629 5630 5631 5632 5633 5634 5635 5637 5639 5640 5642 5643 5645 5647 5649 5650
5607 5605 5604 5603 5603 5602 5601 5601 5601 5602 5603 5603 5603 5603 5604 5605 5605 5604 5604 5603 5604 5605 5606 5606 5606 5607 5607 5608 5611 5613 5614 5616 5615 5616 5619 5620 5622 5623 5624 5625 5626 5626 5627 5629 5631 5632 5634 5636 5637 5640 5642 5644
5597 5595 5594 5593 5592 5591 5590 5590 5589 5589 5590 5591 5592 5593 5593 5593 5594 5595 5595 5594 5593 5594 5595 5596 5597 5598 5598 5598 5600 5602 5604 5606 5607 5607 5610 5612 5614 5616 5616 5617 5619 5619 5620 5621 5623 5625 5626 5628 5630 5632 5634 5636
5587 5585 5584 5582 5581 5580 5579 5578 5578 5577 5577 5578 5579 5580 5582 5582 5583 5584 5584 5584 5583 5583 5583 5585 5587 5588 5588 5589 5590 5592 5593 5595 5597 5598 5600 5603 5605 5607 5608 5610 5611 5612 5613 5614 5615 5617 5619 5620 5622 5624 5626 5628
5578 5576 5574 5572 5570 5569 5568 5567 5566 5566 5565 5565 5565 5567 5568 5570 5571 5572 5573 5573 5574 5573 5572 5573 5575 5577 5578 5579 5581 5582 5583 5584 5586 5588 5590 5593 5595 5598 5600 5602 5603 5605 5607 5607 5607 5610 5612 5613 5614 5616 5618 5621
5568 5566 5564 5561 5559 5558 5557 5556 5555 5554 5554 5553 5553 5553 5554 5556 5558 5559 5561 5562 5563 5563 5563 5563 5563 5564 5566 5569 5570 5572 5573 5574 5575 5577 5580 5583 5585 5588 5591 5593 5594 5596 5599 5599 5600 5601 5602 5605 5607 5609 5612 5614
5557 5555 5553 5551 5548 5546 5545 5544 5543 5542 5542 5541 5541 5541 5541 5542 5543 5545 5547 5549 5550 5551 5552 5553 5553 5553 5554 5556 5559 5561 5563 5564 5565 5566 5568 5572 5575 5577 5581 5583 5585 5586 5589 5591 5591 5592 5592 5596 5599 5601 5605 5607
5546 5543 5541 5540 5537 5535 5533 5531 5531 5530 5529 5529 5529 5528 5528 5529 5529 5530 5532 5534 5537 5538 5540 5541 5542 5543 5543 5544 5546 5549 5552 5554 5556 5556 5556 5560 5564 5567 5570 5572 5575 5576 5578 5581 5583 5583 5584 5587 5588 5591 5596 5598
5536 5533 5530 5527 5525 5523 5520 5519 5518 5517 5517 5516 5515 5515 5515 5515 5516 5516 5517 5519 5522 5524 5526 5528 5530 5531 5532 5533 5534 5536 5539 5542 5546 5547 5546 5549 5553 5556 5559 5561 5563 5566 5568 5570 5573 5574 5575 5577 5579 5582 5586 5587
5525 5522 5519 5516 5513 5510 5508 5505 5504 5504 5503 5502 5502 5501 5501 5501 5502 5502 5503 5504 5506 5509 5512 5514 5516 5518 5520 5522 5523 5524 5526 5529 5533 5535 5536 5539 5543 5545 5548 5550 5551 5554 5556 5559 5561 5563 5565 5567 5570 5574 5576 5577